User: anonymous   Login
Location: Meetinghouse Hill
(42.7686°N, 71.7752°W)
Time: 17:28:59
(UTC-04:00)
Language:

Iridium 34 - Orbit

View from above orbital plane
View from above orbital plane
View from above satellite
View from above satellite

Ground track
Ground track

The orbit data is extracted from the following two-line orbital elements,

1 24969U 97056E   15183.44338067  .00000213  00000-0  69174-4 0  9997
2 24969 086.3970 257.9523 0002299 094.3271 265.8187 14.34216836929944
Epoch (UTC): 02 July 2015 10:38:28
Eccentricity: 0.0002299
inclination: 86.3970°
perigee height: 776 km
apogee height: 779 km
right ascension of ascending node: 257.9523°
argument of perigee: 94.3271°
revolutions per day: 14.34216836
mean anomaly at epoch: 265.8187°
orbit number at epoch: 92994

The dashed part of the orbit path shows where the satellite is in the earth's shadow,  

DLR